Location: Newark
(44.3248°N, 23.7839°E)
Time: 14:22:55
(UTC+00:00)

CAS-6 - Pass Details

Date: 24 April 2024
Orbit: 602 x 622 km, 97.8° (Epoch: 25 April)

Event Time Altitude Azimuth Distance (km) Brightness Sun altitude
Exits shadow 20:01:32 34° 53° (NE) 1,022 ? -24.1°
Drops below altitude 10° 20:04:56 10° 4° (N) 1,985 ? -24.5°
Sets 20:07:15 0° 356° (N) 2,890 ? -24.7°
